Location: Finney State Fishing Lake and Wildlife Area
(38.1834°N, 100.3310°W)
Time: 22:22:46
(UTC+00:00)

BlueWalker 3 - Visible Passes

Search period start: 04 December 2022 00:00
Search period end: 14 December 2022 00:00
Orbit: 501 x 519 km, 53.2° (Epoch: 04 December)

Date Brightness Start Highest point End Pass type
(mag) Time Alt. Az. Time Alt. Az. Time Alt. Az.
05 Dec 4.4 01:00:16 10° N 01:00:52 11° N 01:00:52 11° N visible
06 Dec 4.2 00:41:48 10° N 00:43:20 12° NNE 00:43:20 12° NNE visible
07 Dec 4.0 00:23:20 10° N 00:25:08 13° NNE 00:25:52 12° NNE visible
08 Dec 4.0 00:04:52 10° N 00:06:47 13° NNE 00:08:30 11° NE visible
08 Dec 4.4 01:42:25 10° NW 01:43:20 16° NW 01:43:20 16° NW visible
09 Dec 3.4 01:24:00 10° NW 01:26:08 29° NNW 01:26:08 29° NNW visible
10 Dec 2.1 01:05:35 10° NW 01:09:07 55° NNE 01:09:07 55° NNE visible
11 Dec 1.9 00:47:09 10° NW 00:51:01 61° NE 00:52:22 36° ESE visible
11 Dec 5.3 02:27:02 10° W 02:27:16 11° W 02:27:16 11° W visible
12 Dec 1.9 00:28:43 10° NW 00:32:36 66° NE 00:36:02 13° ESE visible
12 Dec 4.9 02:08:48 10° W 02:10:49 14° SW 02:10:58 14° SW visible
13 Dec 1.9 00:10:17 10° NW 00:14:11 71° NE 00:18:02 10° SE visible
13 Dec 5.0 01:50:36 10° W 01:52:22 13° SW 01:54:07 10° SSW visible
13 Dec 1.9 23:51:51 10° NW 23:55:45 76° NE 23:59:37 10° SE visible
